Погода в Больших Рымы

Россия / Костромская область     57°28′55″N   43°52′55″E
В апреле 2022 года жителям России запретили посещать сайт meteo.paraplan.net по решению Генеральной прокуратуры. Аудитория сайта уменьшилась в 10 раз. Владельцы сайта не видят смысла в поддержке погодного сервера в таких условиях. Сайт будет закрыт в октябре.
темп.,
°C
ветер,
м/с
пор.,
м/с
влажн.,
%
обл.,
%
осадки,
мм/ч
давл.,
гПа
погр.,
м
30 сентября, пт
пт3000:00+5ююв229716 0.0 101716
03:00+4ююв229783 0.0 101936
06:00+4юв379866 0.0 1020138
09:00+8юв3990100 0.0 1020283
12:00+12ююв488170 0.0 1020491
15:00+14ююв4977100 0.0 1019790
18:00+12юв41189100 0.0 1020441
21:00+11ююв4129393 0.1 1019370
1 октября, сб
сб100:00+10ююв4119696 0.0 1019310
03:00+9ююв3109672 0.1 1019263
06:00+10ююв31096100 0.1 1018347
09:00+12ю3894100 0.2 1018350
12:00+12ююв2793100 0.1 1017401
15:00+12ююв2798100 1.5 1015437
18:00+12ююв2899100 9.7 1014379
21:00+13ююв3999100 12.9 1012522
2 октября, вс
вс200:00+13ююв31098100 1.2 1010530
03:00+13ююв4998100 1.2 1008527
06:00+13ююв41098100 1.0 1006491
09:00+13ю51197100 5.7 1005863
12:00+13юз61178100 0.3 10061396
15:00+11ююз51183100 0.4 10071075
18:00+11юз51184100 0.0 1008943
21:00+10юз3985100 0.0 1009595
3 октября, пн
пн300:00+9ю2589100 0.0 1009220
03:00+8юв2293100 0.0 100926
06:00+9в3886100 0.0 1008225
09:00+12вюв51286100 0.0 1007399
12:00+16юв51385100 0.3 1006675
15:00+17юв61369100 0.4 1005886
18:00+15ююв61469100 0.0 1006963
21:00+14ююв71780100 0.1 10071333
4 октября, вт
вт400:00+14ююв71378100 0.1 10081229
03:00+12ююз4987100 0.6 1010747
06:00+11ю51183100 0.4 1011725
09:00+12ю5118171 0.5 10131189
12:00+13ю6116467 0.3 10151534
15:00+13ююз5958100 0.3 10161671
18:00+11ю3962100 0.0 1018483
21:00+8ююв311795 0.0 1019307